Time,TemperatureF,DewpointF,PressureIn,WindDirection,WindDirectionDegrees,WindSpeedMPH,WindSpeedGustMPH,Humidity,HourlyPrecipIn,Conditions,Clouds,dailyrainin,SoftwareType,DateUTC
2013-01-06 00:06:00,38.4,36.0,30.27,SW,217,0.0,-999.0,92,-99.99,,,0.03,weatherlink.com 1.10,2013-01-06 05:06:00,
2013-01-06 00:20:00,38.4,36.0,30.27,SW,218,0.0,-999.0,92,-99.99,,,0.04,weatherlink.com 1.10,2013-01-06 05:20:00,
2013-01-06 00:35:00,38.4,36.0,30.26,SW,218,0.0,-999.0,92,-99.99,,,0.04,weatherlink.com 1.10,2013-01-06 05:35:00,
2013-01-06 00:50:00,38.4,36.0,30.26,SW,216,0.0,-999.0,91,-99.99,,,0.04,weatherlink.com 1.10,2013-01-06 05:50:00,
2013-01-06 01:05:00,38.4,36.0,30.25,SSW,204,0.0,-999.0,91,-99.99,,,0.04,weatherlink.com 1.10,2013-01-06 06:05:00,
2013-01-06 01:20:00,38.4,36.0,30.25,SSW,207,0.0,-999.0,91,-99.99,,,0.04,weatherlink.com 1.10,2013-01-06 06:20:00,
2013-01-06 01:35:00,38.4,36.0,30.25,SW,225,0.0,-999.0,91,-99.99,,,0.04,weatherlink.com 1.10,2013-01-06 06:35:00,
2013-01-06 01:50:00,38.5,36.0,30.25,SW,225,0.0,-999.0,91,-99.99,,,0.04,weatherlink.com 1.10,2013-01-06 06:50:00,
2013-01-06 02:05:00,38.4,36.0,30.25,SW,225,0.0,-999.0,91,-99.99,,,0.04,weatherlink.com 1.10,2013-01-06 07:05:00,
2013-01-06 02:20:00,38.4,36.0,30.24,SW,225,0.0,-999.0,91,-99.99,,,0.05,weatherlink.com 1.10,2013-01-06 07:20:00,
2013-01-06 02:35:00,38.4,36.0,30.24,SW,225,0.0,-999.0,91,-99.99,,,0.05,weatherlink.com 1.10,2013-01-06 07:35:00,
2013-01-06 02:50:00,38.4,36.0,30.23,SW,225,0.0,-999.0,91,-99.99,,,0.05,weatherlink.com 1.10,2013-01-06 07:50:00,
2013-01-06 03:05:00,38.4,36.0,30.23,SW,225,0.0,-999.0,91,-99.99,,,0.05,weatherlink.com 1.10,2013-01-06 08:05:00,
2013-01-06 03:20:00,38.5,36.0,30.23,SW,225,0.0,-999.0,91,-99.99,,,0.05,weatherlink.com 1.10,2013-01-06 08:20:00,
2013-01-06 03:35:00,38.4,36.0,30.23,SW,226,0.0,-999.0,91,-99.99,,,0.05,weatherlink.com 1.10,2013-01-06 08:35:00,
2013-01-06 03:50:00,38.5,36.0,30.22,SW,226,0.0,-999.0,91,-99.99,,,0.05,weatherlink.com 1.10,2013-01-06 08:50:00,
2013-01-06 04:05:00,38.5,36.0,30.22,SW,226,0.0,-999.0,91,-99.99,,,0.05,weatherlink.com 1.10,2013-01-06 09:05:00,
2013-01-06 04:20:00,38.5,36.0,30.22,SW,226,0.0,-999.0,91,-99.99,,,0.05,weatherlink.com 1.10,2013-01-06 09:20:00,
2013-01-06 04:36:00,38.5,36.0,30.22,NNW,335,2.0,-999.0,91,-99.99,,,0.05,weatherlink.com 1.10,2013-01-06 09:36:00,
2013-01-06 04:51:00,38.6,36.0,30.21,NW,304,0.0,-999.0,91,-99.99,,,0.05,weatherlink.com 1.10,2013-01-06 09:51:00,
2013-01-06 05:06:00,38.6,36.0,30.21,NW,304,0.0,-999.0,91,-99.99,,,0.05,weatherlink.com 1.10,2013-01-06 10:06:00,
2013-01-06 05:21:00,38.5,36.0,30.20,NW,304,0.0,-999.0,91,-99.99,,,0.05,weatherlink.com 1.10,2013-01-06 10:21:00,
2013-01-06 05:36:00,38.6,36.0,30.22,WSW,248,0.0,-999.0,91,-99.99,,,0.05,weatherlink.com 1.10,2013-01-06 10:36:00,
2013-01-06 05:51:00,38.6,36.0,30.22,WNW,282,4.0,-999.0,91,-99.99,,,0.05,weatherlink.com 1.10,2013-01-06 10:51:00,
2013-01-06 06:06:00,38.6,36.0,30.22,NNW,338,0.0,-999.0,91,-99.99,,,0.05,weatherlink.com 1.10,2013-01-06 11:06:00,
2013-01-06 06:21:00,38.6,36.0,30.22,WNW,289,0.0,-999.0,91,-99.99,,,0.05,weatherlink.com 1.10,2013-01-06 11:21:00,
2013-01-06 06:36:00,38.5,36.0,30.22,WNW,297,0.0,-999.0,91,-99.99,,,0.05,weatherlink.com 1.10,2013-01-06 11:36:00,
2013-01-06 06:51:00,38.5,36.0,30.22,WNW,297,0.0,-999.0,91,-99.99,,,0.05,weatherlink.com 1.10,2013-01-06 11:51:00,
2013-01-06 07:06:00,38.5,36.0,30.22,WNW,297,0.0,-999.0,91,-99.99,,,0.05,weatherlink.com 1.10,2013-01-06 12:06:00,
2013-01-06 07:21:00,38.6,36.0,30.22,WNW,297,0.0,-999.0,91,-99.99,,,0.06,weatherlink.com 1.10,2013-01-06 12:21:00,
2013-01-06 07:36:00,38.6,36.0,30.23,WNW,297,0.0,-999.0,91,-99.99,,,0.06,weatherlink.com 1.10,2013-01-06 12:36:00,
2013-01-06 07:51:00,38.6,36.0,30.23,West,268,0.0,-999.0,90,-99.99,,,0.06,weatherlink.com 1.10,2013-01-06 12:51:00,
2013-01-06 08:06:00,38.7,36.0,30.23,WNW,295,0.0,-999.0,90,-99.99,,,0.06,weatherlink.com 1.10,2013-01-06 13:06:00,
2013-01-06 08:21:00,38.7,36.0,30.23,WNW,294,0.0,-999.0,91,-99.99,,,0.06,weatherlink.com 1.10,2013-01-06 13:21:00,
2013-01-06 08:36:00,38.8,36.0,30.23,WNW,294,0.0,-999.0,91,-99.99,,,0.06,weatherlink.com 1.10,2013-01-06 13:36:00,
2013-01-06 08:51:00,38.8,36.0,30.24,NW,316,0.0,-999.0,90,-99.99,,,0.06,weatherlink.com 1.10,2013-01-06 13:51:00,
2013-01-06 09:06:00,38.9,36.0,30.24,NW,315,3.0,-999.0,90,-99.99,,,0.06,weatherlink.com 1.10,2013-01-06 14:06:00,
2013-01-06 09:21:00,39.0,36.0,30.24,NW,308,3.0,-999.0,90,-99.99,,,0.06,weatherlink.com 1.10,2013-01-06 14:21:00,
2013-01-06 09:36:00,39.0,37.0,30.24,NW,316,5.0,-999.0,91,-99.99,,,0.06,weatherlink.com 1.10,2013-01-06 14:36:00,
2013-01-06 09:51:00,39.1,37.0,30.24,WNW,292,0.0,-999.0,91,-99.99,,,0.06,weatherlink.com 1.10,2013-01-06 14:51:00,
2013-01-06 10:06:00,39.2,37.0,30.25,NW,314,0.0,-999.0,91,-99.99,,,0.06,weatherlink.com 1.10,2013-01-06 15:06:00,
2013-01-06 10:21:00,39.4,37.0,30.26,NW,319,2.0,-999.0,91,-99.99,,,0.06,weatherlink.com 1.10,2013-01-06 15:21:00,
2013-01-06 10:36:00,39.7,38.0,30.25,WSW,254,0.0,-999.0,92,-99.99,,,0.06,weatherlink.com 1.10,2013-01-06 15:36:00,
2013-01-06 10:51:00,39.8,38.0,30.25,WNW,303,2.0,-999.0,93,-99.99,,,0.06,weatherlink.com 1.10,2013-01-06 15:51:00,
2013-01-06 11:06:00,40.0,38.0,30.25,NW,325,0.0,-999.0,92,-99.99,,,0.06,weatherlink.com 1.10,2013-01-06 16:06:00,
2013-01-06 11:21:00,39.9,38.0,30.25,NW,326,6.0,-999.0,91,-99.99,,,0.06,weatherlink.com 1.10,2013-01-06 16:21:00,
2013-01-06 11:36:00,40.3,38.0,30.25,NW,317,7.0,-999.0,90,-99.99,,,0.06,weatherlink.com 1.10,2013-01-06 16:36:00,
2013-01-06 11:51:00,40.9,37.0,30.24,NNW,333,6.0,-999.0,87,-99.99,,,0.06,weatherlink.com 1.10,2013-01-06 16:51:00,
2013-01-06 12:06:00,41.0,37.0,30.23,NNW,335,6.0,-999.0,86,-99.99,,,0.07,weatherlink.com 1.10,2013-01-06 17:06:00,
2013-01-06 12:21:00,41.5,37.0,30.23,West,261,7.0,-999.0,85,-99.99,,,0.07,weatherlink.com 1.10,2013-01-06 17:21:00,
2013-01-06 12:36:00,42.0,38.0,30.22,WSW,245,0.0,-999.0,85,-99.99,,,0.07,weatherlink.com 1.10,2013-01-06 17:36:00,
2013-01-06 12:51:00,41.8,37.0,30.21,NW,325,3.0,-999.0,83,-99.99,,,0.07,weatherlink.com 1.10,2013-01-06 17:51:00,
2013-01-06 13:06:00,42.6,37.0,30.21,NW,326,7.0,-999.0,81,-99.99,,,0.07,weatherlink.com 1.10,2013-01-06 18:06:00,
2013-01-06 13:21:00,42.9,37.0,30.20,North,10,3.0,-999.0,80,-99.99,,,0.07,weatherlink.com 1.10,2013-01-06 18:21:00,
2013-01-06 13:36:00,43.7,38.0,30.20,North,5,0.0,-999.0,79,-99.99,,,0.07,weatherlink.com 1.10,2013-01-06 18:36:00,
2013-01-06 13:51:00,45.0,38.0,30.19,NNW,342,7.0,-999.0,76,-99.99,,,0.07,weatherlink.com 1.10,2013-01-06 18:51:00,
2013-01-06 14:06:00,46.7,39.0,30.19,North,5,6.0,-999.0,75,-99.99,,,0.07,weatherlink.com 1.10,2013-01-06 19:06:00,
2013-01-06 14:21:00,47.0,39.0,30.18,North,360,7.0,-999.0,74,-99.99,,,0.07,weatherlink.com 1.10,2013-01-06 19:21:00,
2013-01-06 14:36:00,46.9,38.0,30.18,NW,316,5.0,-999.0,72,-99.99,,,0.07,weatherlink.com 1.10,2013-01-06 19:36:00,
2013-01-06 14:51:00,48.1,39.0,30.18,NNE,14,7.0,-999.0,72,-99.99,,,0.07,weatherlink.com 1.10,2013-01-06 19:51:00,
2013-01-06 15:06:00,47.4,38.0,30.18,NNW,340,4.0,-999.0,71,-99.99,,,0.07,weatherlink.com 1.10,2013-01-06 20:06:00,
2013-01-06 15:36:00,47.6,38.0,30.18,NW,313,8.0,-999.0,69,-99.99,,,0.07,weatherlink.com 1.10,2013-01-06 20:36:00,
2013-01-06 15:51:00,48.2,38.0,30.19,North,355,7.0,-999.0,68,-99.99,,,0.07,weatherlink.com 1.10,2013-01-06 20:51:00,
2013-01-06 16:06:00,48.3,37.0,30.18,North,11,7.0,-999.0,66,-99.99,,,0.07,weatherlink.com 1.10,2013-01-06 21:06:00,
2013-01-06 16:21:00,48.6,38.0,30.18,NW,308,1.0,-999.0,68,-99.99,,,0.07,weatherlink.com 1.10,2013-01-06 21:21:00,
2013-01-06 16:36:00,48.4,38.0,30.18,NW,310,3.0,-999.0,67,-99.99,,,0.07,weatherlink.com 1.10,2013-01-06 21:36:00,
2013-01-06 16:51:00,48.1,37.0,30.19,NNW,327,10.0,-999.0,66,-99.99,,,0.07,weatherlink.com 1.10,2013-01-06 21:51:00,
2013-01-06 17:06:00,47.7,37.0,30.19,NNW,327,5.0,-999.0,67,-99.99,,,0.07,weatherlink.com 1.10,2013-01-06 22:06:00,
2013-01-06 17:21:00,47.4,38.0,30.19,North,355,5.0,-999.0,69,-99.99,,,0.07,weatherlink.com 1.10,2013-01-06 22:21:00,
2013-01-06 17:36:00,46.5,37.0,30.20,NNW,344,4.0,-999.0,70,-99.99,,,0.00,weatherlink.com 1.10,2013-01-06 22:36:00,
2013-01-06 17:51:00,45.9,37.0,30.20,NNW,329,3.0,-999.0,71,-99.99,,,0.00,weatherlink.com 1.10,2013-01-06 22:51:00,
2013-01-06 18:06:00,45.1,37.0,30.21,North,9,2.0,-999.0,74,-99.99,,,0.00,weatherlink.com 1.10,2013-01-06 23:06:00,
2013-01-06 18:22:00,44.2,37.0,30.22,North,360,4.0,-999.0,77,-99.99,,,0.00,weatherlink.com 1.10,2013-01-06 23:22:00,
2013-01-06 18:37:00,43.5,37.0,30.22,North,360,0.0,-999.0,79,-99.99,,,0.00,weatherlink.com 1.10,2013-01-06 23:37:00,
2013-01-06 18:52:00,42.7,37.0,30.23,North,360,0.0,-999.0,81,-99.99,,,0.00,weatherlink.com 1.10,2013-01-06 23:52:00,
2013-01-06 19:07:00,42.0,37.0,30.23,North,360,0.0,-999.0,83,-99.99,,,0.00,weatherlink.com 1.10,2013-01-07 00:07:00,
2013-01-06 19:22:00,41.8,37.0,30.24,North,360,0.0,-999.0,84,-99.99,,,0.00,weatherlink.com 1.10,2013-01-07 00:22:00,
2013-01-06 19:37:00,40.1,36.0,30.24,North,360,0.0,-999.0,84,-99.99,,,0.00,weatherlink.com 1.10,2013-01-07 00:37:00,
2013-01-06 19:52:00,38.7,36.0,30.24,North,360,0.0,-999.0,88,-99.99,,,0.00,weatherlink.com 1.10,2013-01-07 00:52:00,
2013-01-06 20:07:00,37.9,35.0,30.24,North,360,0.0,-999.0,89,-99.99,,,0.00,weatherlink.com 1.10,2013-01-07 01:07:00,
2013-01-06 20:22:00,37.8,36.0,30.25,North,11,5.0,-999.0,91,-99.99,,,0.00,weatherlink.com 1.10,2013-01-07 01:22:00,
2013-01-06 20:37:00,39.3,36.0,30.26,North,355,3.0,-999.0,88,-99.99,,,0.00,weatherlink.com 1.10,2013-01-07 01:37:00,
2013-01-06 20:52:00,39.9,36.0,30.27,NNW,343,3.0,-999.0,86,-99.99,,,0.00,weatherlink.com 1.10,2013-01-07 01:52:00,
2013-01-06 21:07:00,40.1,36.0,30.27,North,5,4.0,-999.0,85,-99.99,,,0.00,weatherlink.com 1.10,2013-01-07 02:07:00,
2013-01-06 21:22:00,40.1,36.0,30.28,NNW,333,3.0,-999.0,85,-99.99,,,0.00,weatherlink.com 1.10,2013-01-07 02:22:00,
2013-01-06 21:37:00,40.0,36.0,30.28,NNW,335,2.0,-999.0,85,-99.99,,,0.00,weatherlink.com 1.10,2013-01-07 02:37:00,
2013-01-06 22:07:00,39.9,36.0,30.29,NNW,340,0.0,-999.0,84,-99.99,,,0.00,weatherlink.com 1.10,2013-01-07 03:07:00,
2013-01-06 22:22:00,40.0,35.0,30.30,NNW,333,2.0,-999.0,83,-99.99,,,0.00,weatherlink.com 1.10,2013-01-07 03:22:00,
2013-01-06 22:37:00,40.1,35.0,30.29,NNW,329,5.0,-999.0,82,-99.99,,,0.00,weatherlink.com 1.10,2013-01-07 03:37:00,
2013-01-06 22:52:00,39.1,34.0,30.29,NNW,327,1.0,-999.0,83,-99.99,,,0.00,weatherlink.com 1.10,2013-01-07 03:52:00,
2013-01-06 23:07:00,38.4,34.0,30.29,North,5,3.0,-999.0,84,-99.99,,,0.00,weatherlink.com 1.10,2013-01-07 04:07:00,
2013-01-06 23:22:00,37.7,34.0,30.30,NNE,22,8.0,-999.0,85,-99.99,,,0.00,weatherlink.com 1.10,2013-01-07 04:22:00,
2013-01-06 23:37:00,38.4,34.0,30.28,ENE,59,5.0,-999.0,84,-99.99,,,0.00,weatherlink.com 1.10,2013-01-07 04:37:00,
2013-01-06 23:52:00,38.1,33.0,30.28,ENE,64,4.0,-999.0,83,-99.99,,,0.00,weatherlink.com 1.10,2013-01-07 04:52:00,